sat.trackr.live / text

‹ back to catalog

STARLINK-37230

NORAD 68730 · 2026-082C

PAYLOAD ACTIVE UNKNOWN

§ Identity

Operator
Country
US
Launch date
2026-04-15
Launch site
AFWTR
Launch vehicle
Mass (kg)
RCS (m²)

Purposes: comms

External: N2YO · Heavens-Above · Gunter

§ Orbital elements

Epoch: 2026-05-25T05:01:53.808384Z

Period
92.42 min
Inclination
97.2848°
Eccentricity
0.0005128
Mean motion
15.58112686 rev/d
Perigee alt
389.6 km
Apogee alt
396.6 km
Semi-major
6,771.3 km
B*
-7.3062e-3
RAAN
8.9890°
Arg perigee
52.6797°
Mean anomaly
307.4926°
Rev number
617

§ Raw data

STARLINK-372301 68730U 26082C   26145.20965056 -.00515751  00000+0 -73062-2 0  99982 68730  97.2848   8.9890 0005128  52.6797 307.4926 15.58112686  6178

JSON: /api/v1/satellites/68730 · /tle

For live sub-satellite position, see the globe view (requires WebGL).

§ Visibility from observer

Set your observer location to see the next 7 days of passes ≥ 10°. The values pass through the URL so the page stays shareable.

No JS? Fill the form by hand. The geolocation button needs JavaScript.